FW0323 Weather Reports


time (UTC)temp
C
wind
direction
speed
KPH
gust
KPH
rain 1hr
cm
rain 24hr
cm
rain mn
cm
humidity
%
barometer
mb
20260504231544 17 129 0.0 1.6 0.00 0.00 0.00 45 1008.2
20260504230043 18 218 0.0 3.2 0.00 0.00 0.00 43 1008.0
20260504224542 18 255 0.0 6.4 0.00 0.00 0.00 40 1007.9
20260504223042 19 108 0.0 8.0 0.00 0.00 0.00 38 1007.8
20260504221543 19 217 1.6 11.3 0.00 0.00 0.00 37 1007.8
20260504220053 19 272 3.2 9.7 0.00 0.00 0.00 37 1007.8
20260504214549 19 335 1.6 6.4 0.00 0.00 0.00 39 1007.9
20260504213048 20 200 1.6 9.7 0.00 0.00 0.00 36 1008.0
20260504211540 20 338 1.6 11.3 0.00 0.00 0.00 35 1007.9
20260504210038 21 167 0.0 9.7 0.00 0.00 0.00 35 1007.8
20260504204535 20 230 1.6 9.7 0.00 0.00 0.00 36 1007.7
20260504203033 20 330 6.4 16.1 0.00 0.00 0.00 37 1007.9
20260504201530 19 266 3.2 6.4 0.00 0.00 0.00 39 1008.1
20260504200038 19 348 1.6 6.4 0.00 0.00 0.00 39 1008.4
20260504194529 19 278 3.2 8.0 0.00 0.00 0.00 38 1008.4
20260504193027 19 214 1.6 11.3 0.00 0.00 0.00 39 1008.4
20260504191537 18 328 4.8 14.5 0.00 0.00 0.00 42 1008.2
20260504190021 18 185 3.2 6.4 0.00 0.00 0.00 43 1008.3
20260504184520 17 217 3.2 12.9 0.00 0.00 0.00 44 1008.6
20260504183035 16 245 0.0 4.8 0.00 0.00 0.00 46 1008.8
20260504181524 16 16 0.0 3.2 0.00 0.00 0.00 48 1009.0
20260504180021 16 347 1.6 8.0 0.00 0.00 0.00 44 1008.9
20260504174520 16 331 1.6 11.3 0.00 0.00 0.00 45 1008.9
20260504173017 16 264 0.0 8.0 0.00 0.00 0.00 42 1008.9
20260504171517 16 272 3.2 11.3 0.00 0.00 0.00 41 1008.8
20260504081545 1 285 0.0 1.6 0.00 0.00 0.00 82 1011.2
20260504044537 1 266 0.0 1.6 0.00 0.03 0.00 84 1010.8
20260504043029 1 266 0.0 1.6 0.00 0.03 0.00 84 1011.0
20260504041528 1 266 0.0 1.6 0.00 0.03 0.00 87 1010.9
20260504040024 1 266 0.0 1.6 0.00 0.03 0.00 87 1010.8
20260504034534 1 266 0.0 0.0 0.00 0.03 0.03 86 1010.8
20260504033023 1 266 0.0 1.6 0.00 0.03 0.03 85 1010.7
20260504031521 1 266 0.0 1.6 0.00 0.03 0.03 84 1010.7
20260504030036 2 266 0.0 0.0 0.00 0.03 0.03 83 1010.6
20260504024517 2 266 0.0 1.6 0.00 0.03 0.03 81 1010.5
20260504023016 2 266 0.0 1.6 0.00 0.03 0.03 79 1010.7
20260504021513 2 266 0.0 1.6 0.00 0.03 0.03 78 1010.7
20260504020011 3 266 0.0 0.0 0.00 0.03 0.03 76 1010.7
20260504014528 3 266 0.0 1.6 0.00 0.10 0.03 74 1010.6
20260504013009 3 266 0.0 0.0 0.00 0.10 0.03 73 1010.5
20260504011508 4 266 0.0 1.6 0.00 0.10 0.03 68 1010.4
20260504010009 5 266 0.0 1.6 0.00 0.10 0.03 61 1010.2
20260504004511 6 266 0.0 3.2 0.00 0.13 0.03 59 1010.0
20260504003019 6 319 0.0 4.8 0.00 0.13 0.03 55 1009.7
20260504001506 6 280 3.2 9.7 0.00 0.13 0.03 54 1009.6
20260504000005 7 303 0.0 6.4 0.00 0.13 0.03 53 1009.3
20260503234515 7 91 0.0 4.8 0.00 0.18 0.03 51 1008.9
20260503233005 7 337 1.6 4.8 0.00 0.18 0.03 50 1008.7